N0YUV Weather Reports


time (UTC)temp
F
wind
direction
speed
knots
gust
knots
rain 1hr
in
rain 24hr
in
rain mn
in
humidity
%
barometer
mb
20260906190023 84 152 0.0 0.0 0.00 0.00 0.00 79 1014.0
20260906184522 84 152 0.0 0.0 0.00 0.00 0.00 80 1014.1
20260906183020 83 152 0.0 0.0 0.00 0.00 0.00 81 1014.2
20260906181515 83 154 0.0 0.0 0.00 0.00 0.00 84 1013.9
20260906180014 82 153 0.0 0.0 0.00 0.00 0.00 85 1014.0
20260906174510 81 153 0.0 0.0 0.00 0.00 0.00 87 1014.4
20260906173005 80 153 0.0 0.0 0.00 0.00 0.00 88 1014.2
20260906171503 80 153 0.0 0.0 0.00 0.00 0.00 89 1014.3
20260906170106 80 154 0.0 0.0 0.00 0.00 0.00 91 1014.4
20260906164559 78 155 0.0 0.0 0.00 0.00 0.00 92 1014.5
20260906163100 78 155 0.0 0.0 0.00 0.00 0.00 92 1014.4
20260906161555 77 155 0.0 0.0 0.00 0.00 0.00 92 1014.4
20260906160050 77 156 0.0 0.0 0.00 0.00 0.00 92 1014.4
20260906154550 76 156 0.0 0.0 0.00 0.00 0.00 92 1014.7
20260906153107 76 157 0.0 0.0 0.00 0.00 0.00 91 1014.9
20260906151551 76 157 0.0 0.0 0.00 0.00 0.00 91 1014.9
20260906150038 76 156 0.0 0.0 0.00 0.00 0.00 91 1014.8
20260906144543 76 155 0.0 0.0 0.00 0.00 0.00 91 1015.0
20260906143043 76 155 0.0 0.0 0.00 0.00 0.00 91 1015.2
20260906141538 77 155 0.0 0.0 0.00 0.00 0.00 91 1015.2
20260906140035 76 155 0.0 0.0 0.00 0.00 0.00 91 1014.8
20260906134531 76 155 0.0 0.0 0.00 0.00 0.00 91 1014.0
20260906133031 76 155 0.0 0.0 0.00 0.00 0.00 91 1014.0
20260906131529 76 155 0.0 0.0 0.00 0.00 0.00 91 1013.9
20260906130029 76 156 0.0 0.0 0.00 0.00 0.00 91 1013.9
20260906124526 75 156 0.0 0.0 0.00 0.00 0.00 91 1013.9
20260906123037 75 155 0.0 0.0 0.00 0.00 0.00 91 1013.7
20260906121521 75 155 0.0 0.0 0.00 0.00 0.00 91 1013.6
20260906120017 75 156 0.0 0.0 0.00 0.00 0.00 91 1013.5
20260906114516 75 156 0.0 0.0 0.00 0.00 0.00 91 1013.5
20260906113016 75 156 0.0 0.0 0.00 0.00 0.00 91 1013.3
20260906111514 75 156 0.0 0.0 0.00 0.00 0.00 90 1013.1
20260906110016 75 156 0.0 0.0 0.00 0.00 0.00 91 1013.0
20260906104512 75 157 0.0 0.0 0.00 0.00 0.00 90 1013.4
20260906103012 75 157 0.0 0.0 0.00 0.00 0.00 90 1013.3
20260906101521 76 157 0.0 0.0 0.00 0.00 0.00 90 1013.3
20260906100010 76 157 0.0 0.0 0.00 0.00 0.00 90 1013.0
20260906094510 76 157 0.0 0.0 0.00 0.00 0.00 90 1012.9
20260906093013 76 157 0.0 0.0 0.00 0.00 0.00 89 1012.9
20260906091507 76 157 0.0 0.0 0.00 0.00 0.00 89 1013.0
20260906090015 76 156 0.0 0.0 0.00 0.00 0.00 89 1013.1
20260906084505 76 156 0.0 0.0 0.00 0.00 0.00 89 1013.3
20260906083005 77 156 0.0 0.0 0.00 0.00 0.00 89 1013.3
20260906081503 77 156 0.0 0.0 0.00 0.00 0.00 89 1013.0
20260906080000 77 156 0.0 0.0 0.00 0.00 0.00 89 1013.1
20260906074610 77 156 0.0 0.0 0.00 0.00 0.00 89 1013.0
20260906073111 78 156 0.0 0.0 0.00 0.00 0.00 89 1012.8
20260906071557 78 156 0.0 0.0 0.00 0.00 0.00 88 1012.8
20260906070056 78 155 0.0 0.0 0.00 0.00 0.00 88 1012.6
20260906064553 78 156 0.0 0.0 0.00 0.00 0.00 88 1012.8
20260906063052 79 156 0.0 0.0 0.00 0.00 0.00 88 1012.8
20260906061550 79 156 0.0 0.0 0.00 0.00 0.00 88 1012.9
20260906060049 79 156 0.0 0.0 0.00 0.00 0.00 88 1013.1
20260906054549 79 156 0.0 0.0 0.00 0.00 0.00 88 1013.1
20260906053046 79 156 0.0 0.0 0.00 0.00 0.00 88 1013.1
20260906051555 79 157 0.0 0.0 0.00 0.00 0.00 88 1012.9
20260906050041 79 157 0.0 0.0 0.00 0.00 0.00 88 1013.0
20260906044545 79 157 0.0 0.0 0.00 0.00 0.00 87 1013.0
20260906043047 80 157 0.0 0.0 0.00 0.00 0.00 87 1013.0
20260906041536 80 157 0.0 0.0 0.00 0.00 0.00 86 1013.1
20260906040038 80 157 0.0 0.0 0.00 0.00 0.00 86 1013.1
20260906034540 80 157 0.0 0.0 0.00 0.00 0.00 85 1013.3
20260906033035 81 157 0.0 0.0 0.00 0.00 0.00 84 1013.0
20260906031539 81 157 0.0 0.0 0.00 0.00 0.00 84 1013.0
20260906030033 81 156 0.0 0.0 0.00 0.00 0.00 83 1012.8
20260906024533 82 156 0.0 0.0 0.00 0.00 0.00 83 1012.6
20260906023033 82 156 0.0 0.0 0.00 0.00 0.00 82 1012.6
20260906021532 83 157 0.0 0.0 0.00 0.00 0.00 81 1012.3
20260906020032 83 157 0.0 0.0 0.00 0.00 0.00 79 1012.0
20260906014534 84 156 0.0 0.0 0.00 0.00 0.00 78 1011.8
20260906013052 85 156 0.0 0.0 0.00 0.00 0.00 77 1011.5
20260906011530 85 155 0.0 0.0 0.00 0.00 0.00 76 1011.4
20260906010031 86 155 0.0 0.0 0.00 0.00 0.00 74 1011.4
20260906004530 87 155 0.0 0.0 0.00 0.00 0.00 73 1011.2
20260906003029 88 155 0.0 0.0 0.00 0.00 0.00 72 1011.3
20260906001528 88 155 0.0 0.0 0.00 0.00 0.00 71 1011.1
20260906000028 89 155 0.0 0.0 0.00 0.00 0.00 70 1010.9
20260905234527 89 155 0.0 0.0 0.00 0.00 0.00 69 1010.9
20260905233033 89 154 0.0 0.0 0.00 0.00 0.00 68 1010.8
20260905231528 89 155 0.0 0.0 0.00 0.00 0.00 67 1010.7
20260905230027 89 154 0.0 0.0 0.00 0.00 0.00 66 1010.5
20260905224525 90 153 0.0 0.0 0.00 0.00 0.00 65 1010.6
20260905223024 90 153 0.0 0.0 0.00 0.00 0.00 65 1010.6
20260905221524 90 153 0.0 0.0 0.00 0.00 0.00 64 1010.5
20260905220023 90 153 0.0 0.0 0.00 0.00 0.00 63 1010.5
20260905214526 90 156 0.0 0.0 0.00 0.00 0.00 63 1010.7
20260905213021 89 157 0.0 0.0 0.00 0.00 0.00 64 1010.7
20260905211519 89 156 0.0 0.0 0.00 0.00 0.00 63 1010.8
20260905210028 89 156 0.0 0.0 0.00 0.00 0.00 64 1010.9
20260905204516 89 155 0.0 0.0 0.00 0.00 0.00 64 1011.0
20260905203017 89 155 0.0 0.0 0.00 0.00 0.00 64 1011.3
20260905201514 89 155 0.0 0.0 0.00 0.00 0.00 65 1011.8
20260905200012 88 155 0.0 0.0 0.00 0.00 0.00 65 1012.1
20260905194507 87 155 0.0 0.0 0.00 0.00 0.00 66 1012.5
20260905193007 86 151 0.0 0.0 0.00 0.00 0.00 67 1012.8
20260905191505 86 154 0.0 0.0 0.00 0.00 0.00 65 1013.4